Weather History for Milford, UT

Change the Weather History Date:

Monday, September 16, 2013

  Actual Average Record
Temperature  
Mean Temperature 70 °F -  
Max Temperature 87 °F 77 °F 93 °F (2000)
Min Temperature 52 °F 43 °F 36 °F (2006)
Cooling Degree Days 4    
Growing Degree Days 20 (Base 50)    
Moisture  
Dew Point 45 °F    
Average Humidity 45    
Maximum Humidity 89    
Minimum Humidity 10    
Precipitation  
Precipitation 0.00 in - - ()
Sea Level Pressure  
Sea Level Pressure 29.88 in    
Wind  
Wind Speed 9 mph (SSW)    
Max Wind Speed 16 mph    
Max Gust Speed 24 mph    
Visibility 10 miles    
Events      
Averages and records for this station are not official NWS values.
T = Trace of Precipitation, MM = Missing Value Source: NWS Daily Summary

Daily Weather History Graph

Daily Weather History Graph

Search for Another Location

Airport:

Trip Planner

Search our weather history database for the weather conditions in past years. The results will help you decide how hot, cold, wet, or windy it might be!

Date:

Astronomy

Sep. 16, 2013 Rise Set
Actual Time 7:14 AM MDT 7:38 PM MDT
Civil Twilight 6:48 AM MDT 8:04 PM MDT
Nautical Twilight 6:17 AM MDT 8:35 PM MDT
Astronomical Twilight 5:45 AM MDT 9:07 PM MDT
Moon 5:48 PM MDT (9/16) 4:07 AM MDT (9/16)
Length of Visible Light 13h 16m
Length of Day
12h 23m
Waxing Gibbous, 90% of the Moon is Illuminated
Sep 16
Waxing Gibbous
Sep 19
Full
Sep 26
Last Quarter
Oct 4
New
Oct 11
First Quarter

Hourly Weather History & Observations

Time (MDT) Temp. Dew Point Humidity Pressure Visibility Wind Dir Wind Speed Gust Speed Precip Events Conditions
12:52 AM 62.1 °F 50.0 °F 65% 29.90 in 10.0 mi SSW 9.2 mph - N/A   Clear
1:52 AM 61.0 °F 50.0 °F 67% 29.90 in 10.0 mi South 8.1 mph - N/A   Clear
2:52 AM 60.1 °F 48.9 °F 67% 29.90 in 10.0 mi South 6.9 mph - N/A   Clear
3:52 AM 60.1 °F 48.9 °F 67% 29.90 in 10.0 mi South 10.4 mph - N/A   Clear
4:52 AM 54.0 °F 48.9 °F 83% 29.91 in 10.0 mi SSW 3.5 mph - N/A   Clear
5:52 AM 53.1 °F 48.9 °F 86% 29.92 in 10.0 mi SSE 8.1 mph - N/A   Clear
6:52 AM 52.0 °F 48.9 °F 89% 29.94 in 10.0 mi South 6.9 mph - N/A   Clear
7:52 AM 54.0 °F 48.9 °F 83% 29.96 in 10.0 mi South 5.8 mph - N/A   Clear
8:52 AM 60.1 °F 51.1 °F 72% 29.97 in 10.0 mi South 6.9 mph - N/A   Clear
9:52 AM 70.0 °F 50.0 °F 49% 29.95 in 10.0 mi South 9.2 mph - N/A   Clear
10:52 AM 77.0 °F 45.0 °F 32% 29.94 in 10.0 mi SW 11.5 mph - N/A   Clear
11:52 AM 80.1 °F 45.0 °F 29% 29.93 in 10.0 mi SSW 12.7 mph - N/A   Clear
12:52 PM 82.0 °F 46.0 °F 28% 29.91 in 10.0 mi South 10.4 mph - N/A   Clear
1:52 PM 84.9 °F 39.0 °F 20% 29.88 in 10.0 mi SSW 8.1 mph 17.3 mph N/A   Scattered Clouds
2:52 PM 84.9 °F 39.0 °F 20% 29.85 in 10.0 mi South 12.7 mph 23.0 mph N/A   Partly Cloudy
3:52 PM 86.0 °F 35.1 °F 16% 29.82 in 10.0 mi SSW 12.7 mph 24.2 mph N/A   Partly Cloudy
4:52 PM 86.0 °F 39.9 °F 20% 29.83 in 10.0 mi SSW 12.7 mph 23.0 mph N/A   Clear
5:52 PM 84.9 °F 37.0 °F 18% 29.81 in 10.0 mi SW 16.1 mph 23.0 mph N/A   Clear
6:52 PM 82.9 °F 34.0 °F 17% 29.81 in 10.0 mi SSW 13.8 mph - N/A   Clear
7:52 PM 75.9 °F 36.0 °F 23% 29.82 in 10.0 mi SW 9.2 mph - N/A   Clear
8:52 PM 68.0 °F 44.1 °F 42% 29.85 in 10.0 mi South 3.5 mph - N/A   Clear
9:52 PM 68.0 °F 45.0 °F 43% 29.83 in 10.0 mi South 8.1 mph - N/A   Clear
10:52 PM 64.0 °F 44.1 °F 48% 29.83 in 10.0 mi WSW 10.4 mph - N/A   Clear
11:52 PM 66.0 °F 45.0 °F 47% 29.82 in 10.0 mi SW 8.1 mph - N/A   Clear